Flag for U.S.A. Weather past 2 weeks in Fort Collins, Colorado, U.S.A.

Now
52 °F

Clear.


Feels Like: 51 °F
Forecast: 48 / 67 °F
Wind: 3 mph from West

Location: Fort Collins-Loveland Municipal Airport

Current Time: Oct 22, 2014 at 3:39:28 AM

Latest Report: Oct 22, 2014 at 3:15 AM


Visibility: 10 mi

Pressure: 30.00 "Hg

Humidity: 62%

Dew point: 39 °F

Location of Fort CollinsLocation

Historic Weather in Fort Collins — Graph

°F

Fort Collins temperature yesterday

Maximum temperature yesterday: 79 °F (at 3:35 PM)
Minimum temperature yesterday: 45 °F (at 1:55 AM)
Average temperature yesterday: 59 °F

Past Weeks' High & Low Weather Summary

 TemperatureHumidityPressure
High79 °F (Oct 7, 2:15 PM)100% (Oct 11, 4:35 AM)30.27 "Hg (Oct 11, 4:35 AM)
Low36 °F (Oct 14, 5:15 AM)18% (Oct 15, 10:15 PM)29.70 "Hg (Oct 12, 7:35 AM)
Average54 °F57%30.08 "Hg
* Reported Oct 7 2:15 AM — Oct 22 2:35 AM, Fort Collins, Weather by CustomWeather, © 2014

Note: Actual official high and low records may vary slightly from our data, if they occured in-between our weather recording intervals... More about our weather records

Advertising

Fort Collins weather history for previous 24 hours

 ConditionsComfort  
Time TempWeatherWind HumidityBarometerVisibility
2:35 AM
Oct 22
54 °FPassing clouds.9 mph58%30.00 "Hg10 mi
2:15 AM55 °FPassing clouds.8 mph55%30.00 "Hg10 mi
1:55 AM55 °FPassing clouds.10 mph55%30.00 "Hg10 mi
1:35 AM55 °FPassing clouds.10 mph55%30.00 "Hg10 mi
1:15 AM55 °FClear.12 mph59%30.00 "Hg10 mi
12:55 AM55 °FClear.12 mph63%29.99 "Hg10 mi
12:35 AM55 °FClear.10 mph63%29.98 "Hg10 mi
12:15 AM55 °FClear.9 mph59%29.98 "Hg10 mi
11:55 PM
Oct 21
57 °FClear.8 mph59%29.97 "Hg10 mi
11:35 PM57 °FPassing clouds.6 mph59%29.97 "Hg10 mi
11:15 PM57 °FClear.9 mph63%29.97 "Hg10 mi
10:55 PM63 °FClear.10 mph42%29.97 "Hg10 mi
10:35 PM63 °FPassing clouds.7 mph42%29.97 "Hg10 mi
10:15 PM63 °FPassing clouds.7 mph42%29.97 "Hg10 mi
9:55 PM63 °FClear.3 mph42%29.96 "Hg10 mi
9:35 PM64 °FClear.7 mph40%29.96 "Hg10 mi
9:15 PM63 °FPassing clouds.5 mph45%29.96 "Hg10 mi
8:55 PM59 °FPassing clouds.No wind55%29.95 "Hg9 mi
8:35 PM61 °FClear.3 mph52%29.93 "Hg10 mi
8:15 PM61 °FClear.6 mph48%29.93 "Hg10 mi
7:55 PM61 °FClear.6 mph52%29.93 "Hg10 mi
7:35 PM61 °FClear.3 mph48%29.93 "Hg10 mi
6:55 PM63 °FSunny.7 mph45%29.91 "Hg10 mi
6:35 PM63 °FSunny.7 mph45%29.91 "Hg10 mi
6:15 PM64 °FSunny.7 mph43%29.91 "Hg10 mi
5:55 PM64 °FSunny.8 mph46%29.90 "Hg10 mi
5:35 PM68 °FScattered clouds.9 mph40%29.90 "Hg10 mi
5:15 PM70 °FPartly sunny.9 mph38%29.90 "Hg10 mi
4:55 PM73 °FPassing clouds.8 mph29%29.90 "Hg10 mi
4:35 PM79 °FSunny.3 mph24%29.89 "Hg10 mi
4:15 PM77 °FSunny.9 mph26%29.89 "Hg10 mi
3:55 PM77 °FSunny.6 mph26%29.90 "Hg9 mi
3:35 PM79 °FSunny.6 mph24%29.90 "Hg10 mi
3:15 PM75 °FSunny.7 mph27%29.90 "Hg10 mi
2:55 PM75 °FSunny.10 mph27%29.90 "Hg10 mi
2:35 PM77 °FSunny.12 mph26%29.91 "Hg10 mi
2:15 PM77 °FSunny.9 mph26%29.92 "Hg9 mi
1:55 PM77 °FSunny.12 mph26%29.93 "Hg10 mi
1:35 PM75 °FSunny.12 mph27%29.94 "Hg4 mi
1:15 PM73 °FSunny.10 mph33%29.95 "Hg8 mi
12:55 PM73 °FSunny.12 mph33%29.96 "Hg5 mi
12:35 PM73 °FSunny.9 mph33%29.98 "Hg6 mi
12:15 PM72 °FSunny.8 mph36%29.99 "Hg10 mi
11:55 AM70 °FSunny.8 mph38%30.00 "Hg10 mi
11:35 AM68 °FSunny.7 mph40%30.01 "Hg10 mi
11:15 AM66 °FSunny.7 mph43%30.01 "Hg10 mi
10:55 AM64 °FSunny.6 mph43%30.02 "Hg10 mi
10:35 AM61 °FSunny.3 mph48%30.03 "Hg10 mi
10:15 AM59 °FSunny.3 mph55%30.04 "Hg10 mi
9:55 AM57 °FSunny.5 mph51%30.04 "Hg10 mi
9:35 AM55 °FSunny.3 mph59%30.04 "Hg10 mi
9:15 AM52 °FSunny.No wind67%30.05 "Hg10 mi
8:55 AM50 °FSunny.No wind67%30.04 "Hg10 mi
8:35 AM46 °FSunny.5 mph76%30.04 "Hg10 mi
8:15 AM46 °FClear.3 mph82%30.04 "Hg10 mi
7:55 AM45 °FClear.3 mph76%30.03 "Hg10 mi
7:35 AM46 °FClear.No wind76%30.03 "Hg10 mi
7:15 AM45 °FClear.No wind81%30.03 "Hg10 mi
6:55 AM46 °FClear.5 mph76%30.03 "Hg10 mi
6:35 AM46 °FClear.No wind71%30.03 "Hg10 mi
6:15 AM46 °FClear.No wind71%30.03 "Hg10 mi
5:55 AM45 °FClear.3 mph71%30.03 "Hg10 mi
5:35 AM46 °FClear.No wind66%30.03 "Hg10 mi
5:15 AM45 °FClear.No wind71%30.03 "Hg10 mi
4:55 AM45 °FClear.No wind71%30.03 "Hg10 mi
4:35 AM45 °FClear.No wind71%30.03 "Hg10 mi
3:55 AM45 °FClear.3 mph71%30.03 "Hg10 mi
3:35 AM45 °FClear.No wind71%30.03 "Hg10 mi
Weather by CustomWeather, © 2014

See weather overviewHow to use our weather pages